Wetbulb
41.74 41.59 41.92 42.33 42.36 41.64 41.74 43.62 40.75 43.18 42.61 47.13 48.73 48.19 48.62 49.44 49.38 49.82 50.61 51.66 52.84 54.00 55.58 56.64 57.76 57.95 56.90 56.79 56.32 56.49 55.46 55.56 56.49 56.06 55.63 55.42 54.91 54.70 54.63 53.34 52.02 50.79 48.24 45.09
37.75 40.80 42.08 40.60 41.99 42.97 43.30 42.92 43.71 43.60 43.33 46.06 47.46 48.59 48.16 47.77 48.22 48.34 48.94 49.97 50.87 51.86 52.86 54.83 56.64 57.91 57.36 56.68 56.06 56.43 55.55 55.23 55.63 55.44 55.06 54.53 54.34 54.23 52.67 52.46 51.59 49.40 44.29 42.08
36.09 39.25 38.89 36.23 40.39 41.72 42.57 43.32 44.75 40.64 46.26 47.12 45.95 46.84 47.38 47.25 47.37 47.25 48.16 49.08 50.12 51.00 51.86 52.93 54.75 57.77 58.01 57.08 56.59 55.86 55.53 55.15 54.70 54.53 54.15 54.14 54.03 52.60 50.60 51.50 50.78 45.56 42.75 41.88
34.87 37.89 30.31 41.28 45.03 45.40 44.10 44.10 44.27 44.30 45.60 47.94 47.09 46.91 47.14 47.83 47.71 47.63 47.92 48.98 50.44 51.38 52.29 53.41 53.73 56.19 58.59 57.49 56.09 55.74 55.32 54.61 54.33 53.99 53.53 53.37 52.94 51.06 49.64 50.62 46.27 43.42 41.94 40.64
34.33 34.61 37.22 39.48 41.54 42.32 42.30 42.53 45.78 45.67 46.11 45.84 46.11 47.32 44.83 46.75 47.82 48.08 48.85 50.06 51.00 52.07 52.24 52.84 52.79 55.58 57.13 56.34 55.82 55.22 54.56 54.39 54.15 53.81 53.18 52.17 51.59 50.11 49.06 47.60 43.78 42.11 40.35 38.92
34.91 32.97 31.16 40.14 43.42 45.77 46.77 40.62 46.37 46.88 46.04 44.99 46.33 44.81 45.13 46.33 47.46 48.63 49.38 50.48 50.96 52.16 52.94 53.40 54.22 55.93 55.73 55.46 54.83 54.24 54.15 54.32 54.21 53.63 52.56 51.59 51.78 49.08 46.15 44.84 41.97 39.83 37.98 38.02
34.90 35.25 37.82 41.20 43.99 45.34 38.63 41.54 47.48 47.28 46.61 46.32 46.09 47.38 45.82 45.82 46.20 47.70 48.91 49.99 51.84 52.51 52.41 53.09 54.50 55.10 54.46 54.19 53.89 53.88 53.54 53.03 52.47 52.26 51.12 51.28 49.79 48.31 43.94 41.57 39.14 37.63 36.26 36.26
35.32 35.51 33.74 43.44 44.66 41.25 43.68 44.71 46.43 46.73 46.35 46.02 44.53 43.97 43.61 43.41 43.42 44.37 45.09 47.10 49.90 51.61 52.04 52.96 53.97 54.78 53.82 53.52 52.77 52.69 52.28 51.33 51.23 50.77 49.60 49.29 47.93 45.21 43.75 38.89 36.41 34.93 34.12 32.88
37.88 39.05 39.23 40.82 42.94 45.19 45.97 46.27 45.06 44.86 44.94 44.17 42.97 42.52 42.54 41.94 41.92 42.52 44.55 45.61 46.95 47.90 49.92 51.28 52.50 52.99 53.23 51.97 51.80 51.02 50.87 50.32 49.28 48.33 47.78 47.10 45.78 42.64 39.62 38.72 36.25 34.12 32.96 32.22
37.95 36.10 36.84 39.32 42.78 44.33 46.71 45.45 45.46 44.62 42.98 43.35 41.40 41.20 40.43 40.78 41.60 43.71 44.37 44.82 46.49 47.23 47.05 47.43 49.08 49.96 51.46 51.57 50.47 50.00 50.00 48.76 48.01 47.91 46.48 45.94 45.02 42.73 40.62 36.52 34.98 34.02 33.22 32.52
33.09 35.36 37.76 37.51 38.71 40.80 40.85 41.08 40.07 40.22 40.93 40.36 40.02 39.49 40.38 41.43 42.32 43.11 43.48 44.08 44.53 44.42 44.52 45.46 47.61 48.39 49.08 49.66 49.88 49.29 49.04 47.77 46.90 46.75 44.73 44.75 44.57 43.16 42.13 42.13 38.18 35.67 34.95 33.82
34.32 38.11 38.14 36.04 38.16 40.10 39.21 38.56 39.83 39.85 39.59 40.79 41.52 40.57 41.82 41.39 41.89 42.17 42.07 42.54 42.60 42.83 43.21 43.56 45.01 45.87 46.24 47.43 48.14 48.32 47.50 46.77 46.14 45.33 44.44 43.98 43.39 41.59 33.56 35.51 34.93 34.89 34.99 34.93
40.30 39.56 38.85 38.18 39.69 39.94 39.27 39.91 40.91 41.38 41.47 40.52 40.58 41.02 40.87 40.47 39.86 38.09 40.14 40.38 40.57 40.90 41.78 42.54 43.36 43.91 44.63 44.70 45.53 46.05 46.51 46.68 45.57 42.02 43.90 43.17 42.49 41.74 40.65 36.36 34.14 34.41 34.12 33.96
39.31 39.21 36.48 38.38 37.75 40.47 40.58 40.74 40.89 40.34 40.14 39.95 39.72 39.82 39.20 38.47 38.24 38.33 38.53 39.37 40.32 40.53 40.86 41.29 41.42 41.40 42.51 42.82 43.11 43.83 44.51 36.40 44.88 44.71 44.17 41.30 40.04 40.58 41.45 38.49 34.58 33.60 33.18 33.26
36.82 38.62 39.35 38.76 38.64 37.80 38.44 38.10 37.11 36.98 37.27 37.39 38.44 38.04 37.83 37.06 37.35 37.85 39.07 39.21 39.59 39.68 39.92 40.10 39.32 39.14 40.64 40.96 40.84 41.69 42.40 43.58 44.10 44.36 43.93 41.90 40.73 38.79 38.59 37.24 35.93 33.61 31.99 31.23
36.79 37.44 37.75 36.89 36.27 36.30 36.30 35.94 35.97 36.01 36.50 36.88 36.79 36.72 37.07 37.65 37.76 38.27 38.98 38.92 37.97 37.90 39.20 38.61 38.00 39.70 39.73 39.82 39.55 40.38 41.55 36.32 37.05 42.76 42.66 41.73 41.50 40.71 38.28 36.91 37.66 33.53 30.84 31.28
35.09 33.71 34.39 34.29 35.01 35.35 36.14 36.55 36.55 36.64 36.52 36.25 36.41 36.89 37.26 37.19 37.27 37.47 38.07 38.84 38.45 38.42 39.23 39.03 39.09 40.08 39.49 39.21 39.18 39.40 39.80 40.21 36.15 39.83 41.43 41.49 41.47 40.53 40.68 39.35 38.46 37.16 33.46 32.23
38.49 38.18 38.18 37.46 36.06 35.42 35.17 35.54 36.14 36.23 36.07 36.84 36.89 36.91 36.09 33.99 36.07 37.02 37.54 38.08 37.21 37.23 38.63 39.21 39.34 39.09 38.88 38.77 38.60 38.02 37.19 36.87 37.14 38.55 39.71 40.19 40.15 40.80 40.04 39.59 38.84 37.48 35.81 32.58
37.12 37.01 36.77 36.41 36.15 35.73 35.49 35.97 36.72 37.12 36.88 36.92 36.71 36.87 37.13 36.45 36.89 37.24 37.33 33.54 31.82 35.57 38.19 38.45 33.72 35.27 37.91 36.94 34.86 36.53 36.26 35.72 36.13 35.74 36.43 36.64 38.36 38.55 38.74 38.72 38.18 37.00 35.18 32.26
36.38 36.92 36.77 36.35 35.86 35.74 35.85 36.46 37.04 36.59 36.96 36.77 36.37 32.75 33.61 32.35 32.11 31.50 33.34 33.88 36.42 37.91 38.71 38.17 38.10 37.89 37.49 36.85 33.43 35.36 34.70 35.23 35.07 35.42 35.49 34.82 35.70 37.15 37.50 35.61 37.00 36.36 35.24 30.96
37.14 36.77 36.63 36.40 36.60 36.81 37.07 37.33 35.80 35.60 36.87 35.65 33.75 33.30 31.96 33.75 32.84 29.58 31.38 33.86 37.90 38.04 38.06 35.45 37.43 37.77 37.20 34.96 34.35 34.41 33.56 33.44 34.22 34.37 34.63 34.71 33.73 34.18 34.74 35.37 35.62 35.13 34.03 30.74
35.95 36.13 35.77 35.82 36.31 36.56 37.33 37.11 36.17 34.94 33.67 32.64 31.09 30.17 29.58 30.62 31.82 31.60 31.63 34.97 38.98 33.38 36.62 37.98 38.01 35.67 36.20 32.22 33.43 32.73 32.37 32.08 31.96 33.09 33.75 34.39 34.13 33.51 33.25 33.63 33.57 34.43 33.78 31.67
36.08 35.71 35.31 30.63 29.72 34.79 34.47 33.83 32.13 32.33 32.20 32.42 32.34 32.89 32.39 34.53 36.10 35.30 34.98 38.97 36.93 36.26 37.12 38.25 35.77 32.57 31.81 34.13 34.32 32.54 31.56 31.19 31.09 31.71 32.86 33.42 34.33 33.84 33.43 32.97 33.04 33.04 32.21 30.44
35.44 35.83 35.44 35.48 31.81 32.81 32.06 35.73 35.00 35.74 31.86 32.47 32.57 32.35 33.40 34.42 35.33 36.27 37.36 35.50 33.39 33.42 33.96 36.66 34.21 31.50 29.97 33.57 32.92 32.53 31.78 31.43 31.09 31.53 31.83 32.09 33.51 34.20 33.97 33.51 32.74 32.74 31.82 30.28
35.04 34.63 34.28 33.58 33.79 34.43 34.78 35.55 34.79 34.50 34.50 34.98 35.25 35.58 35.34 36.55 35.15 37.71 38.17 36.06 33.15 33.94 35.78 33.90 31.34 30.88 30.77 32.27 32.27 32.09 31.72 31.49 31.15 30.99 31.36 31.53 32.78 33.36 33.28 33.11 32.77 32.22 31.12 30.26
34.44 34.82 35.00 34.99 34.64 34.95 35.34 35.10 34.18 35.88 35.85 36.05 37.46 37.86 38.35 37.53 36.35 35.23 35.72 34.21 34.43 34.06 33.36 33.72 33.34 32.45 31.53 31.73 31.51 31.43 31.12 30.93 31.05 31.37 31.41 32.14 32.41 32.78 32.89 32.93 32.26 32.01 31.16 30.36
34.40 31.81 33.52 33.60 34.20 34.22 34.58 34.66 34.49 34.89 35.71 35.69 34.73 36.66 36.12 36.56 35.84 34.29 33.31 33.18 33.36 32.99 32.99 33.36 33.36 32.33 31.91 31.36 30.77 30.88 30.46 30.95 30.70 31.63 32.08 31.71 32.13 32.63 32.45 32.45 32.25 32.27 31.73 30.36
MSLP
1004.38 1004.65 1004.75 1004.97 1005.51 1006.10 1006.19 1005.92 1006.16 1006.21 1006.71 1006.62 1006.91 1007.84 1008.72 1009.48 1009.88 1009.95 1009.95 1010.06 1010.07 1010.01 1010.16 1010.59 1011.08 1011.67 1012.32 1012.90 1013.49 1014.03 1014.71 1015.28 1015.80 1016.77 1017.64 1018.48 1019.19 1019.86 1020.46 1021.27 1021.78 1022.54 1023.50 1024.54
1004.83 1004.90 1004.84 1004.79 1004.80 1004.97 1005.25 1005.60 1005.75 1006.23 1006.39 1006.98 1007.74 1008.62 1009.49 1010.01 1010.34 1010.35 1010.47 1010.61 1010.56 1010.30 1010.18 1010.24 1010.45 1010.83 1011.43 1011.96 1012.63 1013.26 1013.87 1014.40 1015.33 1016.17 1016.89 1017.55 1018.30 1019.06 1019.77 1020.49 1021.35 1022.29 1023.02 1023.83
1004.93 1004.95 1005.33 1005.18 1003.35 1004.11 1004.68 1005.10 1005.14 1005.73 1006.03 1007.18 1008.31 1009.03 1009.83 1010.37 1010.85 1011.10 1011.02 1011.11 1010.87 1010.56 1010.29 1010.12 1010.07 1010.21 1010.45 1011.17 1011.97 1012.59 1013.16 1013.81 1014.55 1015.27 1015.92 1016.69 1017.48 1018.34 1019.07 1019.69 1020.68 1021.68 1022.52 1023.33
1005.48 1005.49 1005.43 1002.92 1003.10 1003.17 1003.73 1004.41 1004.97 1005.48 1006.10 1006.79 1008.21 1009.55 1010.41 1010.99 1011.21 1011.16 1011.28 1011.32 1011.12 1010.87 1010.51 1010.15 1009.97 1009.92 1010.25 1010.88 1011.52 1012.12 1012.68 1013.17 1013.95 1014.61 1015.31 1016.19 1016.95 1017.74 1018.56 1019.30 1020.10 1020.94 1021.96 1022.89
1005.72 1005.25 1004.59 1004.04 1003.79 1003.45 1003.65 1004.42 1004.74 1005.41 1006.74 1007.79 1008.93 1009.83 1010.83 1011.19 1011.17 1011.11 1011.21 1011.28 1011.22 1011.07 1010.78 1010.35 1009.99 1009.97 1010.25 1010.76 1011.31 1011.89 1012.43 1013.04 1013.63 1014.27 1014.83 1015.48 1016.39 1017.29 1017.95 1018.97 1019.86 1020.61 1021.46 1022.41
1005.88 1005.37 1004.59 1003.73 1003.59 1003.43 1003.21 1004.04 1004.91 1005.61 1006.51 1007.51 1008.74 1009.18 1010.21 1010.93 1011.15 1011.29 1011.46 1011.41 1011.20 1010.95 1010.71 1010.41 1010.42 1010.44 1010.61 1011.01 1011.55 1012.05 1012.59 1013.18 1013.79 1014.47 1014.83 1015.35 1015.83 1016.78 1017.80 1018.69 1019.65 1020.53 1021.34 1022.20
1005.81 1005.51 1005.06 1004.60 1004.46 1004.32 1004.41 1004.34 1004.69 1005.83 1006.88 1007.73 1008.42 1008.86 1010.03 1010.90 1011.26 1011.47 1011.53 1011.51 1011.31 1011.12 1011.02 1011.16 1011.15 1011.10 1011.17 1011.58 1011.95 1012.42 1012.86 1013.41 1013.90 1014.55 1015.04 1015.33 1016.11 1017.10 1017.99 1018.69 1019.45 1020.68 1021.47 1022.06
1006.21 1006.17 1006.03 1005.37 1005.30 1005.25 1005.16 1005.36 1005.67 1006.58 1007.65 1008.63 1009.23 1009.84 1010.55 1011.09 1011.46 1011.68 1011.67 1011.59 1011.49 1011.34 1011.42 1011.58 1011.53 1011.41 1011.61 1011.92 1012.43 1012.72 1013.08 1013.52 1013.98 1014.42 1015.06 1015.25 1015.97 1016.87 1017.42 1018.77 1019.60 1020.29 1021.21 1022.24
1006.47 1006.22 1006.39 1006.47 1006.27 1005.83 1006.20 1005.70 1006.96 1007.71 1008.60 1009.08 1009.92 1010.68 1011.28 1011.59 1011.83 1012.08 1012.16 1012.11 1012.05 1011.96 1011.89 1011.95 1011.95 1011.97 1011.96 1012.42 1012.67 1012.93 1013.23 1013.60 1014.04 1014.53 1014.87 1015.47 1015.92 1016.63 1017.62 1018.37 1019.49 1020.11 1020.64 1021.42
1006.36 1007.32 1007.40 1007.27 1007.07 1006.86 1007.20 1007.07 1007.52 1008.37 1009.18 1010.19 1010.51 1011.24 1011.83 1012.17 1012.43 1012.63 1012.81 1012.76 1012.73 1012.66 1012.66 1012.68 1012.67 1012.53 1012.49 1012.58 1012.79 1012.99 1013.25 1013.61 1013.96 1014.32 1014.85 1015.38 1015.85 1016.58 1017.09 1017.86 1018.75 1019.56 1020.30 1021.05
1006.81 1007.54 1008.31 1008.35 1008.19 1008.00 1008.22 1008.57 1009.03 1009.65 1010.14 1010.93 1011.44 1011.86 1012.14 1012.68 1013.28 1013.65 1013.81 1013.83 1013.77 1013.69 1013.67 1013.61 1013.43 1013.17 1012.98 1012.84 1012.96 1013.04 1013.27 1013.60 1013.91 1014.23 1014.64 1014.95 1015.44 1015.89 1016.14 1016.66 1017.06 1017.49 1018.37 1019.35
1006.11 1006.68 1007.31 1008.93 1009.12 1008.81 1009.20 1009.59 1010.09 1010.59 1011.57 1011.70 1012.05 1012.48 1012.99 1013.51 1014.08 1014.28 1014.39 1014.47 1014.45 1014.47 1014.42 1014.33 1014.09 1013.86 1013.71 1013.57 1013.46 1013.43 1013.49 1013.67 1013.86 1014.13 1014.49 1014.79 1015.08 1015.63 1016.00 1016.30 1016.77 1017.41 1017.98 1018.07
1006.31 1007.19 1007.54 1008.84 1009.68 1009.89 1009.94 1010.41 1011.07 1011.33 1011.75 1012.30 1013.06 1013.21 1013.59 1014.08 1014.54 1014.74 1014.88 1014.98 1015.00 1015.01 1014.97 1014.81 1014.58 1014.41 1014.29 1014.20 1013.90 1013.71 1013.65 1013.63 1013.79 1014.04 1014.12 1014.30 1014.61 1015.01 1015.33 1016.34 1016.62 1016.89 1017.32 1017.97
1007.34 1007.64 1009.15 1009.57 1010.14 1010.59 1010.89 1011.47 1011.80 1012.25 1012.74 1013.13 1013.59 1013.98 1014.32 1014.63 1014.95 1015.12 1015.26 1015.40 1015.42 1015.39 1015.27 1015.18 1015.01 1014.78 1014.69 1014.55 1014.21 1013.91 1013.72 1013.60 1013.57 1013.47 1013.55 1013.84 1014.06 1014.31 1014.72 1015.22 1015.77 1016.41 1017.06 1017.55
1008.39 1008.44 1009.03 1009.95 1010.71 1011.25 1011.70 1012.01 1012.38 1012.86 1013.34 1013.83 1014.22 1014.50 1014.80 1014.98 1015.10 1015.22 1015.35 1015.44 1015.40 1015.29 1015.20 1015.20 1015.14 1014.93 1014.84 1014.70 1014.35 1013.96 1013.67 1013.35 1013.20 1013.09 1013.05 1013.10 1013.39 1013.67 1014.01 1014.47 1014.99 1015.72 1016.57 1017.49
1009.44 1009.71 1010.19 1010.61 1011.32 1011.83 1012.13 1012.47 1012.68 1013.17 1013.62 1014.06 1014.41 1014.74 1014.98 1015.13 1015.20 1015.21 1015.25 1015.31 1015.20 1014.95 1014.94 1015.07 1014.93 1014.79 1014.74 1014.57 1014.31 1013.90 1013.50 1013.25 1013.13 1012.73 1012.52 1012.56 1012.64 1012.75 1013.14 1013.43 1013.89 1014.65 1015.37 1015.83
1009.93 1010.65 1011.03 1011.39 1011.71 1012.07 1012.29 1012.62 1012.88 1013.19 1013.61 1013.96 1014.24 1014.59 1014.83 1014.97 1015.01 1014.94 1014.91 1015.01 1015.07 1014.96 1014.79 1014.64 1014.43 1014.45 1014.49 1014.35 1014.10 1013.76 1013.47 1013.10 1012.79 1012.47 1011.99 1011.73 1011.61 1011.67 1011.77 1012.15 1012.45 1013.06 1013.70 1014.51
1010.43 1010.66 1011.00 1011.15 1011.69 1012.21 1012.60 1012.90 1013.21 1013.51 1013.77 1014.01 1014.32 1014.57 1014.74 1014.89 1014.80 1014.71 1014.74 1014.81 1014.79 1014.60 1014.35 1014.19 1014.17 1014.16 1014.05 1013.93 1013.71 1013.53 1013.33 1012.98 1012.64 1012.11 1011.56 1011.10 1010.80 1010.69 1010.71 1010.81 1011.14 1011.63 1012.44 1013.39
1011.28 1011.47 1011.71 1011.95 1012.29 1012.64 1012.97 1013.22 1013.41 1013.62 1013.89 1014.15 1014.41 1014.51 1014.65 1014.70 1014.70 1014.53 1014.64 1014.72 1014.47 1014.09 1013.64 1013.92 1014.02 1014.07 1013.73 1013.53 1013.49 1013.13 1012.80 1012.42 1011.99 1011.60 1011.25 1010.74 1010.30 1010.04 1009.87 1009.90 1010.06 1010.57 1011.31 1012.24
1011.56 1011.79 1012.07 1012.31 1012.64 1012.90 1013.01 1013.16 1013.39 1013.59 1013.67 1013.99 1014.29 1014.46 1014.54 1014.39 1014.53 1014.62 1014.56 1014.34 1013.82 1013.39 1013.23 1013.26 1013.32 1013.27 1013.13 1012.99 1012.98 1012.68 1012.31 1011.87 1011.41 1010.97 1010.50 1010.04 1009.69 1009.31 1009.10 1009.10 1009.20 1009.67 1010.37 1011.12
1012.01 1012.20 1012.41 1012.68 1012.79 1012.91 1012.99 1013.20 1013.49 1013.53 1013.34 1013.79 1014.11 1014.05 1013.87 1013.73 1013.84 1014.18 1014.14 1013.57 1012.64 1012.50 1012.61 1012.63 1012.65 1012.51 1012.38 1012.47 1012.40 1012.15 1011.83 1011.38 1010.79 1010.18 1009.65 1009.17 1008.79 1008.47 1008.28 1008.28 1008.49 1008.84 1009.43 1009.97
1012.19 1012.27 1012.34 1012.50 1012.60 1012.60 1012.51 1012.65 1012.90 1012.99 1012.98 1013.15 1013.35 1013.39 1013.32 1013.26 1013.15 1013.05 1012.79 1012.51 1011.66 1011.79 1011.85 1011.77 1011.64 1011.53 1011.53 1011.79 1011.69 1011.48 1011.13 1010.69 1010.17 1009.52 1008.85 1008.32 1007.82 1007.47 1007.32 1007.42 1007.54 1007.83 1008.34 1009.02
1012.10 1012.18 1012.26 1012.34 1012.47 1012.36 1012.19 1012.24 1012.40 1012.49 1012.41 1012.24 1012.20 1012.14 1012.06 1011.77 1011.83 1012.01 1011.63 1010.89 1010.89 1010.75 1010.82 1010.63 1010.46 1010.62 1010.77 1010.91 1010.57 1010.45 1010.15 1009.73 1009.25 1008.67 1007.99 1007.42 1006.83 1006.45 1006.29 1006.23 1006.51 1006.94 1007.38 1008.05
1011.85 1011.89 1011.95 1011.92 1012.01 1012.05 1011.97 1011.50 1011.43 1011.27 1011.43 1011.27 1011.13 1010.91 1011.03 1010.94 1010.62 1010.54 1010.13 1010.01 1010.12 1010.18 1010.08 1009.61 1009.61 1009.66 1009.80 1009.80 1009.63 1009.35 1008.98 1008.55 1008.13 1007.62 1006.92 1006.36 1005.86 1005.36 1005.23 1005.25 1005.45 1005.89 1006.45 1007.17
1011.59 1011.56 1011.57 1011.59 1011.56 1011.30 1011.10 1010.88 1010.79 1010.53 1010.39 1010.21 1010.07 1009.91 1009.71 1009.52 1009.60 1009.08 1009.06 1009.01 1008.94 1008.99 1008.83 1008.54 1008.55 1008.67 1008.71 1008.51 1008.43 1008.28 1007.97 1007.54 1007.10 1006.59 1005.97 1005.39 1004.85 1004.41 1004.20 1004.24 1004.38 1004.87 1005.63 1006.31
1011.17 1011.00 1010.86 1010.77 1010.65 1010.42 1010.19 1010.17 1010.03 1009.68 1009.49 1009.28 1008.99 1008.81 1008.61 1008.45 1008.46 1008.47 1008.36 1008.27 1008.05 1007.92 1007.91 1007.63 1007.41 1007.39 1007.39 1007.25 1007.26 1007.15 1006.99 1006.57 1006.07 1005.47 1004.99 1004.45 1003.96 1003.52 1003.32 1003.39 1003.68 1004.09 1004.71 1005.46
1010.65 1010.49 1010.33 1010.06 1009.78 1009.53 1009.29 1009.18 1009.05 1008.73 1008.38 1008.23 1008.07 1007.79 1007.70 1007.64 1007.63 1007.64 1007.50 1007.41 1007.22 1007.06 1006.79 1006.48 1006.36 1006.36 1006.37 1006.27 1006.27 1006.18 1006.03 1005.64 1005.16 1004.66 1004.16 1003.69 1003.13 1002.76 1002.60 1002.66 1003.07 1003.51 1004.11 1004.85
Wind_Speed
17 6 11 16 15 14 15 13 13 11 13 15 13 13 8 4 1 1 3 6 7 6 5 5 8 9 10 11 13 15 16 17 17 16 16 16 16 15 16 16 16 17 16 14
8 12 11 13 16 19 17 9 11 8 9 2 6 9 6 4 3 3 4 6 8 8 6 5 7 9 11 12 13 15 16 16 15 15 16 17 17 16 14 16 15 15 14 15
13 8 9 10 17 16 10 8 13 12 8 15 9 10 7 5 3 2 3 6 8 9 9 7 6 8 11 12 13 14 14 14 15 16 17 17 16 16 15 17 16 14 13 14
4 10 9 11 5 18 17 10 11 5 11 15 15 11 8 4 3 3 2 4 6 8 9 9 8 6 6 10 12 13 13 14 15 16 16 15 16 16 13 14 15 13 13 13
6 7 2 3 6 10 14 11 12 10 15 18 17 12 6 3 4 4 4 5 5 6 7 8 6 3 7 9 10 11 11 12 13 14 15 16 15 15 13 13 12 12 12 13
4 6 11 3 2 2 4 11 12 12 19 23 14 9 5 4 5 6 5 5 7 8 6 8 8 2 5 6 7 8 8 9 9 11 12 13 13 13 11 11 10 9 11 11
4 3 2 1 2 2 12 4 17 16 16 18 10 2 14 8 8 7 7 8 7 8 9 8 6 4 4 4 5 4 6 7 8 9 10 10 11 10 10 10 10 9 10 10
3 6 10 1 2 5 2 6 11 13 9 11 14 14 12 10 9 8 10 11 11 10 9 8 7 5 5 4 3 4 6 7 8 8 7 9 12 10 13 11 11 11 11 8
2 2 3 3 3 2 1 12 8 12 12 16 15 12 10 8 8 9 9 9 9 9 10 9 8 7 6 4 3 5 5 6 7 8 8 9 12 12 9 11 9 9 10 10
5 4 3 3 5 4 7 11 13 15 15 12 15 11 10 8 8 9 10 11 10 10 11 10 10 9 6 3 3 4 5 6 6 7 9 9 8 8 9 9 9 9 9 9
6 7 7 8 6 9 14 14 15 12 11 12 12 10 9 9 8 7 7 8 9 10 9 11 10 10 10 7 3 4 5 5 6 6 10 9 9 9 11 13 12 13 13 12
4 9 8 5 4 8 13 12 13 15 11 10 10 10 9 8 6 5 6 6 6 7 8 9 9 9 11 11 5 6 6 5 6 6 7 7 8 8 2 6 11 8 6 13
6 7 10 11 6 4 11 10 10 11 11 12 8 8 6 4 5 5 6 6 7 7 7 8 8 8 8 10 9 7 8 7 5 7 7 8 9 9 9 4 8 12 13 14
13 13 9 6 6 8 12 11 11 11 9 8 7 6 5 4 3 4 5 5 5 5 5 6 7 9 10 9 9 8 8 6 8 7 8 7 8 9 8 8 9 8 10 14
8 7 9 12 11 9 9 9 9 8 7 6 5 5 4 3 2 3 4 4 5 5 5 6 7 9 9 9 9 10 8 7 7 8 8 9 8 8 8 8 8 7 7 8
9 10 11 12 11 10 8 7 7 7 6 5 5 4 3 1 3 4 5 4 5 6 7 6 7 8 8 8 9 8 9 7 8 8 8 9 9 10 9 9 11 9 10 12
12 7 7 7 9 9 6 4 4 6 6 5 4 3 2 3 5 5 5 5 6 8 8 8 9 8 7 8 9 7 8 9 8 9 9 10 10 11 11 11 11 12 11 13
5 3 7 6 9 7 6 5 4 5 5 4 3 3 3 3 6 7 7 7 7 9 10 9 7 7 9 10 9 8 8 9 9 10 10 11 11 11 11 12 13 12 11 12
2 1 1 2 2 4 4 5 6 5 4 4 5 7 6 6 7 7 6 5 6 10 9 4 4 7 9 9 8 8 8 8 9 8 9 12 12 12 12 12 12 11 12 11
5 4 4 2 2 4 6 5 5 7 8 7 7 5 8 7 6 5 6 8 9 8 8 9 9 9 10 10 7 8 10 10 9 10 9 9 11 12 12 13 13 12 12 11
1 1 2 3 4 5 7 6 6 9 10 7 8 10 10 7 5 4 6 7 7 8 9 8 8 8 7 8 8 8 9 11 10 10 10 10 10 12 12 12 12 11 11 12
1 3 3 3 5 7 7 7 8 8 8 7 8 9 6 10 8 8 10 11 6 7 6 7 7 9 7 6 8 9 10 11 10 10 10 11 11 11 11 11 12 12 11 11
3 4 4 4 4 6 4 5 6 8 10 11 11 11 11 9 7 6 8 8 8 8 7 8 8 9 9 8 8 9 10 11 11 11 11 11 11 11 11 12 11 11 11 11
3 4 4 4 3 4 6 8 6 8 8 10 10 10 9 7 7 7 9 11 11 11 10 9 9 11 8 7 8 8 9 10 10 11 12 15 11 10 11 11 11 10 10 13
6 6 5 5 7 7 9 10 8 9 8 9 10 9 11 8 8 7 6 7 10 9 9 11 12 11 7 6 7 8 9 9 10 10 10 12 11 10 10 10 10 10 10 12
6 6 6 8 8 7 8 7 8 8 7 7 7 7 7 6 6 7 7 10 8 9 9 9 8 7 7 7 7 8 9 10 10 10 11 10 10 10 9 9 9 10 11 11
7 6 7 7 7 8 8 8 8 9 8 7 8 7 7 6 6 7 8 7 8 8 8 8 8 7 7 7 7 8 8 9 11 9 8 9 8 8 7 8 8 9 9 10
Wind_Direction
211 180 193 205 198 180 200 209 206 217 212 215 211 191 170 145 133 207 4 342 336 322 283 227 209 201 199 198 194 193 195 201 202 197 197 195 193 191 194 193 192 189 180 176
187 197 185 207 209 196 201 201 231 216 220 168 123 128 140 131 126 61 10 340 331 327 321 282 235 208 198 196 193 191 196 202 197 193 194 194 191 192 188 193 191 183 177 174
213 189 190 250 209 194 194 190 198 203 206 160 160 146 140 120 97 83 354 323 325 323 315 306 279 226 208 192 183 191 194 194 190 192 194 195 192 189 188 193 185 182 175 174
136 142 195 245 238 204 210 200 188 162 172 171 142 122 118 125 139 85 34 344 323 317 313 310 301 256 209 182 184 189 193 189 189 189 191 190 190 192 187 188 182 176 177 174
155 200 298 161 183 161 181 213 196 164 144 136 133 128 107 97 68 48 10 344 326 323 318 320 320 262 181 176 182 188 192 195 191 191 187 185 191 193 185 182 175 177 171 169
161 174 217 192 156 186 151 218 166 160 158 156 158 174 138 118 74 60 47 20 359 359 16 28 18 97 159 166 175 191 194 196 189 196 190 192 195 186 173 174 171 164 165 174
161 212 272 254 291 260 178 217 166 166 159 159 168 80 130 125 89 65 56 42 32 44 46 37 40 90 110 140 174 168 167 174 180 192 195 190 181 178 169 161 150 158 162 167
134 195 237 126 157 203 65 76 132 136 138 136 120 119 121 111 90 67 53 40 35 45 45 42 42 46 60 73 98 146 160 169 182 182 189 181 177 176 167 160 157 158 157 160
243 185 3 327 305 12 258 133 118 118 124 132 129 123 115 98 77 59 46 41 32 37 43 39 31 29 24 47 129 147 161 172 178 178 175 178 176 167 166 168 171 171 171 171
147 25 7 28 61 74 110 104 115 126 125 127 120 118 107 86 69 60 45 37 28 36 32 26 13 9 352 355 171 183 192 185 179 184 185 185 184 182 174 173 173 176 178 180
91 117 97 43 78 97 94 94 93 83 99 115 115 105 106 91 76 69 60 46 35 33 27 17 10 13 6 337 277 246 235 209 202 201 195 192 203 201 200 204 194 181 189 179
181 148 121 121 131 109 109 111 112 114 103 90 103 104 109 95 81 65 55 39 32 26 14 3 360 7 13 7 314 276 257 233 221 211 208 212 209 202 94 202 195 211 196 187
127 118 102 123 126 117 109 116 118 107 106 109 89 92 85 86 57 43 36 25 16 3 350 344 344 342 356 356 350 298 274 269 243 228 220 216 213 215 218 197 195 181 179 183
99 102 95 130 137 120 116 112 100 95 93 96 105 91 89 80 69 41 29 10 357 344 338 341 335 328 337 333 328 322 297 265 260 245 232 219 215 223 225 208 198 197 192 182
51 56 113 117 118 115 119 126 119 121 125 115 102 106 101 84 32 354 345 344 331 319 326 337 335 326 336 332 320 309 301 286 269 258 247 233 218 210 211 206 205 188 161 169
82 95 120 132 137 141 141 149 147 150 149 144 151 153 146 220 291 300 309 330 332 326 322 324 307 322 323 327 321 309 304 293 280 271 258 239 232 226 215 206 206 190 185 185
104 104 119 137 158 172 179 156 168 170 166 174 185 184 239 297 297 296 309 314 309 300 301 295 295 313 311 311 312 305 299 296 291 279 262 247 238 231 227 216 211 208 198 186
54 103 175 169 179 185 197 192 180 183 203 215 209 220 268 294 290 299 302 311 303 294 288 288 290 303 308 307 306 303 297 294 293 288 278 259 247 240 233 224 221 214 203 188
49 48 62 221 194 204 204 208 214 222 240 248 244 248 252 254 261 273 293 293 284 291 301 301 284 290 303 307 302 299 286 279 278 273 276 274 256 247 239 231 224 214 197 184
80 77 93 99 139 197 215 223 221 231 236 228 237 244 249 247 243 251 263 261 260 262 271 276 286 292 301 305 297 298 291 279 275 275 272 255 256 251 241 231 224 214 202 193
58 279 265 253 255 245 240 237 228 242 244 222 224 236 231 244 228 216 252 261 261 243 243 250 256 263 285 292 296 294 288 286 278 272 268 262 250 240 235 226 215 207 202 192
273 275 278 272 259 268 254 246 233 244 250 240 230 238 241 253 249 237 230 244 263 216 231 239 247 247 261 263 282 283 283 280 277 276 271 264 248 237 229 222 215 208 202 198
281 269 271 254 246 263 289 257 234 229 243 247 248 246 233 239 249 245 263 243 238 242 239 243 243 238 244 262 276 278 275 274 274 271 270 267 257 237 228 218 212 208 198 192
285 281 270 278 293 276 278 281 270 271 234 251 249 246 240 245 245 227 241 251 244 244 244 243 234 235 234 262 267 265 270 274 272 271 272 269 261 241 227 219 209 202 195 188
255 259 254 258 265 264 267 271 277 274 263 258 256 252 239 229 224 248 242 243 242 244 255 244 236 244 243 242 251 263 272 273 272 273 274 277 266 246 227 216 204 194 189 186
267 264 265 262 262 271 272 273 265 270 269 264 260 249 248 240 235 240 251 253 255 255 249 250 240 231 235 242 251 258 270 276 276 274 276 273 264 247 226 212 199 189 182 181
271 258 273 276 263 255 252 250 253 256 252 244 248 257 251 253 250 249 252 256 259 255 252 249 242 236 243 245 255 263 269 272 277 281 281 280 270 246 222 206 194 183 173 170